Theta_e
302 303 303 303 304 305 305 305 304 304 304 305 306 306 306 307 307 307 308 309 310 310 311 311 311 311 311 312 313 312 312 313 315 322 334 340 342 342 343 343 343 343 343 342 342 341 339 339 341 341 341 340 340 338 338 340 341 341 341 340 338 338 338 338 335 334 337 339 339 339 338 337 337 337 335 333 332 331 329 328 329 330 330 331 333 333
303 303 303 302 303 305 305 305 305 305 304 305 305 305 305 305 306 306 307 308 308 309 309 309 310 310 310 311 312 312 312 313 313 318 330 339 342 343 343 343 343 343 343 343 343 342 342 341 342 342 341 341 340 339 339 340 341 341 341 340 338 338 338 337 336 334 335 337 339 338 337 336 337 337 335 334 333 332 330 329 330 331 331 332 333 333
304 303 303 302 303 304 304 305 304 304 304 305 305 305 305 305 305 306 306 307 307 307 308 309 309 309 310 311 312 312 312 313 312 315 324 335 341 343 343 343 343 343 343 343 343 342 342 342 343 342 342 341 340 340 340 340 341 341 341 340 339 338 338 337 337 335 333 335 338 338 336 337 338 338 336 334 334 331 330 330 331 332 333 333 334 333
304 304 303 302 302 303 303 303 303 304 304 304 304 305 305 305 305 306 306 307 307 307 308 308 309 309 310 311 311 312 311 312 313 313 317 327 338 342 342 342 343 343 343 343 343 342 343 344 344 344 343 342 341 341 341 341 342 341 341 340 339 339 338 337 337 335 334 334 336 337 337 337 338 338 336 336 335 332 330 331 332 334 334 334 334 333
304 304 303 303 303 303 303 303 303 304 304 304 304 304 304 304 305 305 306 306 307 307 307 308 308 308 309 310 310 312 312 312 313 314 317 321 331 337 339 341 342 343 342 343 343 342 343 345 345 344 343 342 342 342 342 341 342 342 341 340 340 339 338 337 336 336 334 334 336 337 338 338 338 338 337 336 335 333 331 331 333 334 334 334 334 333
303 304 304 303 303 302 302 303 303 304 304 304 304 304 304 304 305 305 306 306 306 307 307 307 307 309 313 313 312 312 314 314 312 314 318 321 327 333 338 342 342 341 341 341 341 340 341 344 345 345 344 343 343 342 342 342 342 342 341 340 341 339 337 337 336 335 335 334 335 337 337 338 338 338 337 336 335 333 331 331 332 334 334 334 334 333
303 304 303 303 303 302 302 302 302 303 304 304 305 305 304 304 305 305 305 305 306 306 307 308 307 309 314 315 314 314 314 314 313 314 316 320 325 331 335 341 342 342 342 341 341 339 340 343 345 345 345 343 342 342 342 342 342 341 341 341 341 339 338 337 336 335 335 335 335 336 336 336 336 337 336 335 335 333 331 331 332 333 334 334 333 332
304 304 304 303 302 302 302 301 302 302 303 303 304 305 305 305 305 305 305 305 306 306 307 307 308 308 309 311 314 314 313 314 314 313 315 317 322 327 332 339 342 342 342 342 342 341 341 342 342 342 342 340 339 341 343 342 342 341 341 341 341 339 338 337 336 335 334 334 335 335 336 336 336 336 335 335 335 334 332 331 332 334 335 334 333 333
304 304 303 303 303 303 302 302 302 302 302 303 304 304 304 305 305 305 305 305 306 306 306 306 307 307 307 309 312 312 311 312 312 313 314 316 318 323 328 336 341 342 343 343 343 342 342 341 337 336 336 335 338 341 342 342 342 341 341 341 341 339 338 337 336 335 334 333 334 335 336 337 337 336 335 334 335 334 333 332 333 334 335 334 333 333
305 305 304 303 304 304 303 303 303 303 303 304 304 304 304 304 305 305 306 305 306 307 307 307 307 307 307 310 311 310 311 313 312 313 313 314 316 319 324 331 339 343 343 344 344 343 343 341 336 332 331 334 339 341 341 342 342 341 341 341 340 339 338 338 336 335 334 333 334 334 336 337 337 336 336 335 335 335 333 332 333 334 334 334 334 333
305 305 305 305 305 304 304 304 304 304 304 304 304 303 303 304 304 305 306 306 307 308 307 307 307 307 308 310 310 311 314 315 315 314 314 313 314 316 320 327 336 342 344 345 345 344 344 342 338 334 335 340 342 342 342 342 342 341 341 341 340 339 339 338 337 335 334 334 334 334 335 336 336 336 336 336 335 334 333 332 333 334 334 333 333 333
305 305 305 305 305 305 304 304 304 304 304 304 304 303 304 306 307 306 306 307 307 307 307 307 308 307 307 309 310 312 314 314 314 314 315 314 313 314 317 322 331 339 343 344 345 345 344 344 342 341 342 343 343 343 342 342 342 341 341 341 340 340 339 338 337 336 335 334 334 334 335 335 335 335 336 335 334 333 333 332 332 333 333 333 334 333
305 305 305 304 305 304 304 305 304 304 304 303 303 304 303 306 308 307 307 308 307 307 308 308 308 308 308 309 310 311 311 311 312 312 313 313 312 313 315 318 325 334 340 343 344 345 345 344 344 343 343 343 342 342 342 342 342 342 341 341 340 340 339 338 337 337 336 335 335 334 334 333 333 334 335 334 333 332 333 332 332 332 333 333 333 333
306 306 305 304 305 305 304 304 304 305 305 303 303 305 305 306 308 309 309 310 309 309 309 308 308 308 309 310 311 310 310 310 310 310 311 312 312 312 314 316 321 329 337 342 343 344 345 344 344 344 343 343 343 342 342 342 342 342 341 341 341 340 339 338 338 337 337 336 336 334 333 332 332 333 334 334 332 331 333 333 332 332 332 332 332 332
307 309 307 305 305 305 304 304 304 305 305 304 304 306 307 308 310 310 309 310 310 312 313 310 310 311 310 313 315 311 310 309 309 310 310 311 312 312 313 315 319 326 334 340 342 343 344 344 343 343 343 343 343 343 342 342 342 342 341 341 340 340 339 339 338 338 337 337 336 335 334 331 331 332 333 333 332 331 333 333 333 333 332 332 332 332
306 308 307 305 304 304 305 304 304 304 304 304 304 304 304 306 310 309 309 312 311 312 316 314 315 317 315 316 318 314 312 310 310 312 311 312 313 313 313 315 318 325 332 338 342 343 343 343 343 343 343 344 343 343 343 342 342 342 341 341 340 340 339 339 339 338 338 338 337 337 336 333 331 331 332 332 332 332 334 334 334 333 332 332 332 332
307 308 306 305 305 305 304 304 304 304 305 306 304 304 304 306 308 308 309 313 311 311 314 314 315 318 315 316 318 314 314 313 312 314 313 311 313 313 313 314 318 325 331 336 340 342 343 343 344 343 343 343 343 343 343 342 342 342 341 341 340 340 340 339 339 339 338 338 338 338 337 334 331 331 331 332 333 333 335 334 334 333 332 332 332 332
307 307 306 305 306 305 304 304 304 303 305 305 304 306 308 309 309 309 309 310 311 312 314 314 314 316 314 318 321 315 313 316 315 316 315 313 312 312 312 313 317 324 331 336 340 342 343 343 343 343 343 343 343 342 343 342 342 341 341 340 340 339 339 339 339 339 339 339 339 339 338 336 332 331 331 332 334 335 335 335 334 333 333 332 332 332
306 307 308 306 305 306 305 304 305 305 303 304 305 305 310 312 310 309 308 309 312 313 315 316 316 315 314 317 321 316 315 318 319 318 318 317 315 314 314 313 314 322 331 337 340 341 343 343 343 343 343 343 343 342 342 342 341 341 340 340 339 339 339 339 339 339 339 339 339 339 338 336 333 332 332 333 335 336 336 335 334 334 333 333 332 332
306 307 309 307 304 306 307 306 308 308 303 303 305 305 308 311 310 310 309 309 313 315 317 319 318 318 318 317 316 317 317 318 319 320 320 320 319 317 317 316 313 319 329 336 341 341 342 343 343 343 343 343 343 343 342 342 341 341 341 340 340 340 340 340 340 339 339 339 339 339 338 336 333 332 332 333 335 336 336 335 335 334 334 333 332 331
307 306 307 308 306 306 307 308 309 309 306 304 305 307 309 309 309 311 311 311 313 315 317 318 319 320 321 319 318 317 317 318 320 322 323 322 320 320 320 319 315 318 327 334 339 341 341 342 343 343 343 343 343 343 342 342 341 341 341 340 340 340 340 340 340 339 339 339 339 339 337 335 333 332 333 335 336 337 336 336 335 335 334 333 331 331
308 307 307 307 306 306 307 307 307 307 306 305 305 306 308 308 308 310 311 313 313 314 315 316 316 318 319 319 319 316 317 321 322 324 325 322 319 320 321 320 318 320 328 333 337 340 341 342 343 343 343 343 342 342 342 341 341 341 341 341 340 340 340 340 340 339 339 340 340 339 337 334 332 332 333 336 337 337 336 336 336 335 334 332 331 330
309 308 308 307 307 306 306 306 306 306 306 306 305 304 305 308 310 310 312 316 315 314 315 315 315 320 322 319 316 315 316 318 319 321 323 320 319 319 319 320 321 322 328 332 334 337 340 341 342 342 343 343 342 342 341 341 341 341 341 341 341 341 340 340 340 339 339 340 340 339 336 334 332 331 333 336 337 337 337 337 336 335 333 332 331 330
308 308 308 308 307 308 307 306 306 306 307 307 308 306 305 307 308 311 316 318 316 316 316 315 316 320 322 318 314 314 316 316 316 318 319 318 318 318 318 320 322 323 328 333 333 336 338 339 342 342 342 342 342 341 341 341 341 341 341 341 340 340 340 339 339 339 339 340 340 339 336 334 332 331 333 335 335 336 337 337 336 335 333 332 331 329
309 309 309 309 310 311 311 309 308 307 308 309 310 307 305 306 307 312 317 315 315 317 316 315 316 317 317 315 313 315 316 316 316 316 317 317 317 318 318 320 323 324 328 334 334 336 339 340 341 342 342 342 341 341 341 340 341 340 340 340 340 340 339 339 339 339 339 340 340 339 337 335 333 333 334 334 335 336 337 337 336 334 333 331 330 329
309 310 309 310 311 311 311 311 310 309 309 309 309 307 307 307 308 312 316 314 314 318 317 316 316 315 313 313 313 315 316 317 317 316 317 317 317 318 318 320 325 326 328 334 335 336 339 340 341 341 341 342 341 341 341 340 340 340 340 340 340 340 339 339 339 339 339 340 340 339 337 336 335 334 334 335 336 337 337 336 335 334 332 331 330 330
309 310 309 310 311 310 310 311 311 310 310 309 308 308 308 308 309 312 317 317 315 316 317 317 316 314 314 314 313 314 315 317 318 318 318 317 317 318 318 323 328 327 328 333 336 337 339 340 340 341 341 341 341 341 340 340 340 340 340 340 340 340 339 339 339 339 339 340 340 339 337 335 335 335 336 336 337 337 336 335 335 333 331 330 330 331
311 310 309 309 309 309 309 309 309 310 311 311 310 309 309 310 311 311 314 318 318 316 315 316 316 315 315 313 313 314 314 316 319 320 318 316 317 319 321 326 331 329 328 332 336 337 339 339 340 341 341 341 341 340 340 340 339 340 340 340 340 339 339 339 339 339 339 339 340 339 337 334 334 336 337 337 337 336 334 334 334 332 331 329 329 330
312 310 310 310 309 309 310 309 309 310 311 312 312 311 309 310 311 311 312 316 318 317 315 315 315 315 314 313 313 313 314 316 319 319 318 317 319 321 323 327 332 332 330 332 336 338 338 339 340 340 341 341 340 340 340 340 340 340 340 340 340 340 339 339 339 339 339 339 339 339 337 334 334 335 336 336 336 335 333 333 333 332 330 329 329 329
311 310 312 312 311 312 312 312 312 313 314 315 315 313 311 310 311 311 311 314 316 316 316 315 315 314 313 312 313 312 313 317 318 317 317 318 320 321 322 326 332 335 333 334 337 338 338 340 340 340 341 340 340 340 339 340 340 340 341 340 340 340 339 339 339 339 339 339 339 338 337 336 334 334 335 335 335 333 332 333 333 331 330 330 328 328
311 312 313 313 313 314 314 314 314 313 315 316 317 317 314 311 311 311 311 314 316 315 315 315 315 314 312 312 314 314 314 317 318 317 316 319 320 320 321 325 332 337 336 336 337 338 339 339 339 340 340 340 340 340 339 339 340 340 340 340 340 339 339 339 339 339 339 339 339 338 337 337 336 335 334 333 332 331 332 333 333 331 331 331 329 328
311 313 314 314 314 314 315 316 314 313 315 315 318 321 317 313 314 314 313 315 315 314 314 315 314 313 312 314 319 320 319 321 322 318 316 319 319 319 321 324 331 337 337 337 338 338 339 340 340 340 340 340 340 339 339 339 340 340 340 340 339 338 338 339 339 339 339 339 339 338 338 338 336 335 334 332 332 332 332 333 332 332 332 331 329 328
313 314 315 315 315 314 315 316 314 314 316 317 318 319 317 316 316 315 314 315 315 313 314 315 313 312 314 317 322 325 325 324 322 318 317 318 318 319 321 323 329 336 338 338 339 339 339 339 339 339 339 339 339 339 339 339 340 340 340 339 338 338 338 338 338 338 338 338 338 338 338 337 336 335 334 332 332 333 334 333 332 332 333 331 329 329
316 314 314 315 316 316 316 316 315 314 317 319 318 316 316 316 316 314 315 314 314 314 314 314 313 313 316 319 323 327 325 321 319 318 318 318 317 318 319 320 326 335 338 338 338 339 339 340 339 339 339 339 339 339 339 339 339 340 340 339 338 337 337 338 338 338 338 338 339 339 338 336 335 335 334 332 333 333 333 332 332 333 332 329 329 329
315 315 314 315 316 317 317 317 316 317 318 319 317 315 317 317 316 317 318 315 316 318 320 320 318 316 315 317 320 323 320 317 317 317 317 318 317 318 319 319 322 329 336 339 338 338 339 339 339 340 339 339 339 339 339 340 339 339 339 338 337 337 337 338 337 338 338 338 338 338 337 336 336 335 334 333 333 333 333 333 334 333 331 329 330 329
315 316 316 315 316 316 317 317 317 317 317 316 315 315 317 317 317 319 320 318 318 319 321 322 322 321 320 318 318 319 317 316 317 317 317 318 317 317 319 319 319 323 331 337 338 338 339 339 339 340 339 339 340 339 340 340 339 338 338 338 337 337 337 337 337 337 337 337 337 337 336 336 336 335 334 334 334 334 334 334 334 332 330 330 330 329
315 315 315 315 315 315 317 318 317 317 316 315 315 317 318 318 318 319 320 321 319 318 320 322 322 322 322 322 322 322 320 317 318 318 316 317 317 317 317 318 318 319 326 334 337 338 338 339 339 339 339 339 339 339 339 339 338 337 337 337 337 337 337 337 337 337 337 337 337 337 337 337 335 333 334 334 334 335 335 335 333 331 331 331 330 329
315 314 314 315 315 315 317 318 318 318 318 315 315 316 317 317 318 317 319 323 322 320 320 321 321 321 322 323 324 324 322 320 320 319 317 316 317 317 317 317 317 317 322 332 338 338 338 339 339 339 339 339 339 339 339 338 337 337 337 337 337 337 338 337 337 337 336 336 337 337 337 336 335 333 334 335 334 335 335 335 332 330 331 331 330 329
315 314 314 316 316 316 317 318 318 319 318 316 315 315 316 316 317 318 320 323 322 319 320 321 321 321 321 321 323 324 323 324 322 319 316 317 317 317 317 316 317 318 321 328 336 339 339 338 339 339 339 339 339 338 338 338 337 337 337 337 337 337 337 337 336 336 336 336 336 337 337 337 336 334 334 335 336 335 335 334 332 330 330 330 329 329
315 314 314 316 317 316 317 318 318 318 318 317 315 315 315 316 317 318 321 321 319 318 320 320 320 321 321 321 322 324 324 324 321 319 319 320 318 317 317 317 318 321 323 325 331 336 338 338 338 338 338 339 339 338 338 338 337 337 337 337 337 337 337 336 336 335 335 335 336 337 337 337 336 334 334 335 336 336 334 333 332 330 330 330 329 328
317 316 316 316 316 316 317 317 317 318 318 317 316 315 316 317 318 319 321 319 318 319 320 320 320 320 321 321 322 323 324 323 322 324 326 325 320 317 318 320 320 323 325 325 327 333 337 338 338 338 338 339 339 338 338 338 337 337 337 337 337 336 336 336 335 335 335 335 336 337 337 337 337 335 334 334 336 335 334 332 332 330 330 330 329 328
316 315 316 316 316 316 316 317 318 318 317 316 315 315 316 318 319 319 318 318 318 319 320 320 320 320 321 321 322 323 323 324 325 326 328 328 323 320 321 323 323 325 327 326 325 331 337 338 337 338 338 338 339 338 338 338 338 337 337 337 336 336 335 335 335 335 335 335 335 337 338 337 337 336 334 334 335 334 333 332 332 331 330 329 329 328
315 315 315 315 316 316 317 318 319 319 316 315 316 316 316 317 318 317 318 318 318 318 319 320 320 320 321 322 322 323 324 325 326 327 329 329 327 326 326 327 328 328 327 326 327 331 336 338 338 338 338 338 339 339 338 338 337 337 337 337 336 336 336 335 335 335 335 335 335 336 336 336 335 335 334 335 335 334 333 332 332 331 330 329 329 328
315 313 312 314 316 316 317 318 319 318 316 315 316 317 316 317 317 317 319 318 317 317 319 320 320 320 321 321 321 323 325 325 326 327 329 330 330 330 329 329 329 329 327 327 328 331 334 336 337 338 339 338 338 339 339 338 337 337 337 337 337 336 336 335 335 335 336 336 336 335 334 334 334 335 335 335 335 333 333 332 331 331 330 329 328 327
311 310 311 314 315 316 317 317 317 316 315 315 316 317 317 317 317 318 318 317 317 318 319 319 320 320 321 321 321 323 324 325 325 326 328 329 330 330 330 330 330 330 329 329 329 330 332 334 336 338 338 337 337 338 339 338 337 337 337 337 337 336 335 335 336 336 336 336 335 334 333 334 335 336 335 334 334 333 332 331 331 330 329 328 327 327
307 308 311 313 313 314 316 316 315 315 314 314 315 316 317 318 317 317 317 318 318 318 319 319 320 320 320 321 321 323 324 324 325 326 326 327 328 330 331 331 331 331 331 331 331 331 332 333 335 337 337 337 337 337 338 339 338 338 338 337 337 336 336 335 335 336 336 335 335 334 334 335 335 335 334 332 332 332 331 330 330 329 328 328 327 327
307 307 308 309 311 314 315 314 313 313 313 313 314 316 317 318 317 317 318 318 318 317 318 319 320 320 321 321 322 323 324 323 324 325 326 327 327 329 331 332 332 332 332 332 332 332 332 332 333 336 337 337 336 336 337 338 338 337 336 336 336 336 335 335 335 336 336 336 335 335 334 334 334 334 333 331 330 330 331 330 329 328 328 328 327 327
306 306 307 309 311 313 313 311 310 311 310 311 313 315 316 317 317 318 318 318 318 318 319 319 320 320 321 322 322 323 323 324 324 324 325 327 328 329 329 331 331 331 331 331 331 332 332 332 332 334 336 337 335 334 335 336 336 336 335 335 335 335 335 335 335 335 336 336 335 335 335 335 335 334 332 331 331 331 331 330 329 328 328 328 327 327
305 306 309 311 310 310 309 309 308 309 309 310 311 312 312 313 315 318 319 319 319 320 320 320 320 321 321 322 323 323 323 324 324 324 325 327 328 328 329 330 330 331 331 331 331 332 333 333 332 333 335 335 334 333 333 334 335 335 335 335 334 334 334 334 334 335 336 336 335 335 334 334 334 333 331 331 331 331 331 330 329 328 328 328 328 327
306 308 309 309 309 308 308 308 307 308 310 310 309 310 310 310 313 317 320 320 319 320 320 319 320 322 322 323 323 323 323 325 325 325 326 327 328 328 329 329 330 330 331 331 331 332 333 333 333 333 333 333 332 332 333 333 334 334 335 335 334 333 333 333 334 335 335 335 335 334 333 332 332 332 331 331 332 331 330 329 328 327 327 327 326 326
306 307 307 307 308 308 307 307 307 308 308 309 309 310 310 310 313 317 320 320 319 319 320 319 320 321 322 322 323 323 323 324 325 326 327 328 328 328 328 329 329 330 330 330 331 332 332 332 332 332 332 332 331 332 333 333 333 333 333 334 334 334 333 333 334 335 335 335 335 334 332 331 331 331 331 331 331 330 329 328 327 326 326 325 325 324
Wind_Speed
2 3 4 7 5 5 7 8 10 9 6 6 5 5 6 5 6 7 6 6 6 7 8 9 15 19 17 14 13 20 24 15 16 19 22 28 31 33 36 38 39 41 47 51 50 50 50 50 48 47 47 47 45 40 38 37 36 35 33 31 29 30 30 30 33 35 35 34 33 33 32 31 30 27 26 24 23 22 21 21 20 19 18 17 16 15
1 4 8 8 6 6 7 8 8 8 7 7 5 6 8 6 7 9 7 8 8 7 9 11 16 18 14 12 13 16 16 13 14 16 20 27 31 34 36 39 41 44 46 46 43 43 44 46 45 45 45 47 47 43 41 40 39 38 36 33 30 30 31 32 33 36 37 36 35 35 34 32 30 28 27 25 24 24 23 22 20 19 18 18 17 16
3 7 10 6 6 6 7 7 8 9 8 7 5 5 7 6 6 8 8 9 8 6 9 12 16 16 13 11 12 13 12 17 23 23 26 29 30 34 37 38 40 41 41 40 41 43 43 45 46 46 47 48 47 44 44 43 41 40 39 35 31 30 32 33 33 35 37 36 35 34 33 31 29 29 27 25 24 24 24 23 20 19 19 18 18 17
5 8 9 7 7 6 7 8 7 8 7 6 5 4 6 6 5 6 6 7 8 7 9 12 13 12 11 10 9 13 15 21 29 29 32 35 33 36 41 42 42 42 41 39 42 44 43 43 45 47 49 49 47 45 46 45 44 43 42 38 34 32 33 34 35 35 36 35 34 32 30 28 28 29 28 26 26 26 25 24 21 20 19 19 19 18
10 9 6 6 7 7 8 8 7 6 5 6 7 6 7 8 8 7 6 7 7 8 10 10 11 11 9 9 8 12 15 19 25 25 27 35 39 41 43 44 46 47 46 44 44 45 45 45 46 48 50 49 48 47 47 48 47 45 43 40 35 33 34 35 35 36 36 35 34 31 30 29 30 30 30 29 29 28 27 26 23 21 20 19 20 19
13 12 8 7 7 7 7 7 7 6 5 6 8 10 12 12 10 9 9 8 6 7 9 7 8 10 6 7 9 9 9 11 16 17 19 30 38 39 38 40 46 49 51 51 50 50 49 49 50 50 50 50 49 49 49 49 48 47 45 41 37 35 36 36 36 37 36 36 36 35 34 34 34 34 33 32 31 29 28 27 23 21 21 21 21 20
6 8 10 10 10 8 7 8 8 7 5 5 6 9 12 13 11 11 10 8 4 6 9 7 7 8 4 4 8 7 7 9 12 13 15 24 32 35 34 37 43 46 48 50 52 54 54 53 52 52 52 51 50 50 50 50 49 48 45 41 39 37 37 38 38 38 38 37 38 37 36 36 35 35 35 32 30 28 27 26 24 23 22 22 23 21
3 7 9 9 9 8 7 7 7 7 5 5 8 9 11 12 12 12 11 9 6 6 11 9 6 7 6 4 7 7 6 9 11 12 13 18 27 32 33 37 42 45 46 47 49 52 55 56 55 54 54 52 51 51 51 52 51 50 47 43 40 39 38 39 39 39 39 39 39 38 37 36 35 34 33 31 29 27 26 26 25 24 24 24 24 22
1 4 5 5 5 5 5 5 6 6 5 7 10 9 9 11 11 11 9 8 7 6 10 10 6 6 7 5 7 8 8 10 11 13 13 15 25 32 33 38 44 46 46 46 49 51 54 57 58 56 53 51 52 52 52 52 52 51 49 45 41 40 40 39 39 39 39 40 40 39 38 37 35 33 32 31 29 27 27 27 26 26 25 25 25 23
3 3 3 3 3 4 5 6 6 5 5 7 8 7 7 9 9 9 8 6 7 7 9 12 8 5 6 5 7 7 7 9 9 11 12 15 27 35 34 37 43 45 45 45 47 51 53 57 58 56 54 54 54 54 53 53 53 52 50 46 43 42 41 40 39 39 39 40 40 39 39 38 36 34 33 32 30 28 28 28 28 27 26 26 25 23
8 10 9 5 5 5 4 6 6 7 8 7 6 6 6 6 6 6 6 5 6 6 8 14 12 7 6 5 6 6 5 7 6 8 10 13 25 35 33 34 40 43 43 43 44 47 50 54 58 58 57 56 55 54 53 52 52 52 51 48 45 43 41 40 39 39 39 40 40 40 40 39 37 35 35 34 32 30 29 29 29 28 27 27 25 24
6 8 6 4 6 6 3 5 6 6 7 6 4 4 4 5 2 2 3 4 6 7 7 12 12 9 8 6 5 7 8 9 7 6 10 9 17 29 31 31 38 43 44 44 44 45 46 49 54 56 55 52 52 52 53 52 52 52 52 49 46 44 43 41 39 39 39 39 40 41 41 40 38 36 36 35 34 32 31 30 30 29 29 27 26 25
5 7 6 5 7 7 3 4 5 4 4 5 4 3 3 4 3 2 3 3 4 7 7 10 10 8 8 8 9 12 12 12 8 8 12 11 13 24 31 32 36 40 43 45 46 46 47 49 52 53 51 48 49 52 53 52 52 53 52 50 47 46 44 41 40 39 38 38 40 41 40 40 39 37 36 35 34 32 31 31 30 30 29 28 27 26
4 6 6 5 5 9 9 5 4 3 3 5 4 3 3 2 1 2 3 2 2 4 7 10 9 6 5 6 11 15 15 15 15 17 21 21 21 23 28 34 37 39 42 45 47 48 50 52 54 53 52 51 51 53 54 53 52 53 52 50 48 47 44 42 40 39 38 38 39 40 39 39 39 38 36 35 34 33 31 31 31 30 30 28 27 25
2 5 4 4 2 6 9 7 6 5 4 5 4 3 3 3 2 2 2 2 3 3 5 7 6 5 4 5 9 13 15 18 21 22 24 28 31 30 25 32 39 40 41 44 47 50 52 55 57 56 54 54 54 54 54 53 53 54 53 51 49 47 44 42 41 40 38 38 38 38 37 38 39 38 36 34 34 33 32 32 32 31 30 28 26 24
3 5 5 5 5 5 4 3 4 5 5 5 3 3 3 4 3 2 4 5 3 1 4 3 3 4 5 5 8 9 11 14 14 14 15 20 28 30 23 26 36 41 43 45 47 50 52 55 57 58 56 55 55 54 53 53 54 54 53 52 50 47 44 42 41 40 39 38 37 36 36 37 38 37 36 34 34 33 33 32 32 31 29 27 25 23
2 6 5 3 6 7 8 7 5 5 4 2 3 4 3 3 4 1 4 3 3 1 3 2 2 5 3 5 7 8 9 10 8 8 9 15 23 25 22 25 34 41 45 48 49 50 52 54 56 58 58 57 56 55 54 55 56 56 55 53 49 46 44 42 41 40 40 38 37 35 35 37 38 37 36 34 33 33 33 33 32 31 29 26 24 23
1 5 5 4 7 7 7 7 6 7 6 2 3 5 1 2 2 2 1 3 1 2 4 2 3 4 2 3 4 5 7 8 8 8 7 11 16 19 20 24 32 38 43 48 50 51 54 55 57 57 58 58 58 58 58 58 57 56 55 52 48 46 45 43 42 41 40 39 37 36 36 37 37 37 36 34 33 32 33 33 32 31 29 25 24 23
1 4 6 4 6 5 2 3 5 7 8 6 3 3 3 2 1 0 1 2 2 2 3 3 3 4 4 3 2 3 4 6 7 7 7 9 11 13 20 21 27 35 39 43 48 52 55 57 58 59 58 58 58 58 58 57 56 56 55 51 46 45 44 43 42 43 41 39 36 36 37 37 37 37 36 34 33 32 33 33 32 31 29 25 24 23
1 1 4 3 2 3 3 2 3 4 4 3 2 1 2 3 3 2 2 3 2 2 2 3 3 2 4 5 4 5 1 5 6 7 6 7 9 13 21 22 22 32 37 41 46 50 54 57 59 60 60 58 57 57 56 55 54 54 54 51 47 46 46 44 43 44 42 39 37 36 37 37 37 37 36 34 33 33 33 32 32 31 29 26 24 24
1 2 3 4 3 3 3 2 4 3 2 2 2 3 2 2 2 1 1 2 2 3 2 1 2 4 5 2 4 6 2 6 7 7 6 7 12 19 25 25 20 32 38 41 46 49 53 56 57 59 59 57 57 57 55 55 54 54 54 51 48 48 47 46 45 44 43 39 37 37 37 38 38 37 36 34 33 33 33 32 32 30 28 26 25 24
2 2 3 5 5 4 5 4 5 4 2 2 3 3 3 3 2 1 3 3 1 3 3 2 3 6 5 1 4 4 3 6 7 6 6 8 15 21 26 30 20 29 40 42 47 50 52 55 56 56 56 55 55 53 52 53 53 53 53 51 49 49 48 47 46 45 43 40 38 38 38 38 38 37 36 34 33 33 33 33 32 30 28 27 25 25
3 1 3 6 7 9 12 10 6 4 3 4 4 3 2 3 4 3 4 3 1 2 2 1 3 6 5 1 3 7 7 6 8 8 5 9 17 22 26 32 25 21 41 45 48 52 53 55 56 56 56 55 54 53 52 52 52 52 53 51 50 50 48 47 46 45 44 41 39 39 38 38 38 37 36 34 34 33 33 33 32 30 29 27 26 25
3 1 3 6 7 9 11 10 7 5 4 4 4 5 5 5 5 5 4 2 1 2 1 1 4 6 5 4 7 11 10 9 10 9 7 10 16 23 27 32 30 17 36 44 48 53 54 55 56 55 55 54 52 52 52 52 52 52 52 50 50 50 48 47 46 45 44 42 40 39 38 38 37 36 35 34 33 34 34 34 32 30 29 27 26 25
4 2 2 3 4 5 4 4 2 1 3 3 4 5 7 8 6 4 2 3 2 4 5 4 4 5 6 8 9 9 10 10 11 11 10 10 14 22 27 31 32 17 30 42 45 50 50 51 52 52 52 52 51 52 52 52 52 51 50 50 49 49 47 46 45 45 44 42 41 39 37 36 36 35 34 32 33 34 36 34 32 30 28 27 25 25
4 1 2 2 2 1 2 1 1 1 2 3 3 6 8 9 8 5 3 3 4 5 6 4 4 6 9 12 11 9 9 9 12 15 14 13 17 23 27 32 33 18 28 43 45 46 46 46 48 50 51 52 52 53 53 53 52 51 50 49 49 48 47 45 45 45 44 42 41 39 36 35 36 35 34 33 34 35 35 33 31 30 28 26 25 25
1 1 4 5 4 4 4 5 4 2 2 4 4 6 7 8 9 7 4 4 5 2 2 4 4 7 13 14 11 10 10 9 10 12 13 16 21 25 27 31 32 20 27 42 43 43 45 45 47 50 52 53 53 53 53 53 52 51 50 49 48 47 46 46 45 44 43 42 41 39 36 35 35 35 34 34 35 35 33 33 32 29 27 25 25 24
2 2 5 7 9 9 9 11 9 5 5 6 6 7 7 8 9 8 6 6 5 1 5 7 5 5 12 14 12 12 13 10 8 9 11 16 20 22 27 30 28 21 26 38 40 41 45 46 47 50 51 52 53 53 53 53 52 52 51 50 49 47 46 46 45 44 43 42 41 40 37 34 34 34 35 35 35 34 33 33 31 28 26 25 24 24
1 3 4 5 9 10 10 12 11 8 7 8 8 8 9 10 9 10 10 8 6 4 7 9 6 8 13 15 14 13 11 9 11 13 13 15 17 20 27 30 26 21 27 36 39 41 44 46 48 50 51 51 51 51 51 51 50 50 49 49 48 47 47 47 46 45 44 43 43 41 37 34 33 34 35 36 35 35 34 32 30 27 26 25 23 23
1 3 4 4 7 8 7 9 10 8 6 6 8 8 8 10 11 12 12 8 6 7 9 9 10 13 14 14 14 15 15 14 16 17 14 13 16 21 25 28 24 19 27 34 38 42 43 44 47 49 50 50 50 50 50 50 51 50 49 48 47 46 47 46 46 46 45 44 43 41 39 36 33 32 34 36 35 35 34 32 30 27 26 25 23 22
3 3 4 4 5 6 5 7 9 8 6 5 7 7 6 8 9 9 8 6 5 8 10 9 11 13 13 12 11 14 17 15 14 13 11 12 16 20 23 25 21 14 25 31 36 41 41 42 44 46 48 49 50 51 51 51 52 52 50 49 47 47 47 46 46 46 45 45 44 41 40 38 33 31 33 35 34 34 33 32 30 28 27 26 23 22
4 2 1 1 4 6 2 4 8 7 5 4 5 6 5 7 7 6 7 7 8 8 8 8 9 10 11 9 7 8 10 8 8 8 9 14 19 20 19 22 20 11 19 26 33 38 39 41 43 45 47 49 50 52 52 53 53 52 51 50 49 48 47 46 47 46 46 45 43 41 41 38 34 33 33 34 33 34 34 32 31 30 28 27 24 23
5 3 2 1 4 7 2 4 8 4 1 2 4 4 5 6 5 5 6 8 9 8 6 7 9 10 9 8 7 6 7 6 7 8 11 16 22 21 19 19 18 10 13 20 28 34 39 42 45 48 50 51 52 53 54 54 53 53 53 52 50 48 46 47 47 46 45 44 43 43 42 38 36 34 34 34 33 34 34 32 32 32 30 27 25 25
3 3 3 1 2 6 5 5 3 1 1 3 3 2 3 4 4 4 6 9 9 7 6 7 9 10 10 9 8 7 7 8 10 15 19 22 24 23 21 19 15 10 10 16 21 28 36 41 45 49 51 52 54 54 53 53 53 54 53 51 49 47 47 47 46 46 45 44 43 43 40 37 37 36 34 34 34 34 33 32 34 33 29 26 26 27
4 3 2 2 2 4 4 4 3 1 3 3 0 4 6 3 4 7 8 6 1 3 7 9 10 13 12 10 9 9 10 12 16 22 28 29 27 24 22 21 16 10 11 17 20 23 29 35 39 43 46 49 50 49 50 51 51 50 49 48 48 47 46 46 46 45 44 44 44 42 39 39 39 36 34 34 36 35 33 33 34 32 28 26 27 27
3 2 1 1 2 2 3 3 1 3 3 1 1 3 4 3 5 8 6 1 3 3 8 9 9 10 9 8 8 10 14 17 19 25 32 32 28 23 20 21 18 14 13 18 23 24 28 33 37 41 44 46 47 47 49 50 49 47 46 46 47 46 46 46 45 45 44 44 43 42 41 40 38 35 35 35 36 37 36 35 33 29 28 28 28 28
2 1 1 2 2 1 2 2 3 3 3 2 1 2 2 3 4 4 3 2 4 3 6 9 8 8 9 8 12 19 19 14 13 20 27 25 23 23 24 25 22 18 15 18 24 27 27 30 35 40 43 43 45 48 50 49 47 46 45 45 45 45 45 45 45 45 45 44 43 43 43 40 36 34 35 36 36 37 38 36 31 28 29 30 29 30
2 2 3 2 1 0 1 3 3 3 3 2 2 2 4 4 6 4 1 3 4 2 9 11 9 9 10 10 16 22 17 8 5 12 22 24 25 29 31 32 29 23 17 15 23 29 30 32 35 39 41 41 43 46 48 47 46 45 44 45 45 45 45 45 45 45 45 44 44 45 44 40 36 35 37 38 38 37 37 35 29 27 29 29 30 30
2 1 1 1 1 0 0 2 3 1 2 4 4 7 12 9 6 4 0 2 3 7 14 14 11 11 9 9 14 15 10 5 4 10 22 28 31 33 33 33 32 27 19 15 20 27 32 35 36 37 38 40 41 42 43 44 44 44 45 45 46 45 46 46 46 46 45 45 45 44 44 41 36 33 35 39 40 37 34 31 28 27 27 29 31 29
5 3 3 3 4 3 1 1 1 1 3 5 4 11 19 14 4 2 2 3 5 12 16 14 12 12 11 12 13 8 4 6 7 14 25 30 32 35 34 32 29 23 21 20 20 24 28 32 34 35 36 39 40 41 42 42 43 44 45 45 46 46 47 46 46 45 44 44 44 44 43 40 37 35 35 38 40 37 31 27 26 27 27 29 33 28
5 4 3 3 4 5 4 2 2 2 4 4 5 14 21 14 2 4 1 6 10 16 17 15 14 15 15 13 9 7 12 17 21 26 28 25 28 33 32 29 26 20 21 24 22 22 25 29 33 37 39 41 42 42 42 41 42 43 44 44 45 46 46 45 44 43 43 43 43 43 42 41 40 39 35 33 35 34 28 25 26 25 26 30 33 28
4 4 4 3 4 4 3 1 3 2 2 3 9 16 16 7 1 1 8 13 16 18 19 18 17 18 19 16 12 13 21 28 30 28 21 16 20 26 28 27 24 18 20 24 23 22 26 29 34 38 40 41 41 42 42 43 44 45 45 45 46 46 44 42 41 41 42 42 41 41 42 42 39 36 32 32 36 34 29 27 26 25 25 28 31 27
4 5 5 3 2 3 2 2 3 2 4 10 15 11 5 1 3 9 14 17 19 20 21 21 19 18 20 20 18 20 25 28 27 21 14 12 15 18 21 22 17 11 15 22 22 23 27 30 34 38 39 40 41 42 43 44 44 44 45 46 45 43 41 40 40 41 41 41 39 38 37 35 33 33 34 37 39 35 29 27 27 26 25 26 30 29
2 3 4 3 2 3 3 3 1 2 9 18 15 6 6 12 15 15 14 15 20 24 22 22 24 23 20 21 22 23 24 25 23 17 12 10 10 11 16 17 11 7 12 21 25 27 28 30 33 36 38 39 41 42 44 45 46 46 46 47 44 41 39 39 39 39 40 39 37 35 34 34 35 37 38 39 39 36 30 25 24 25 25 27 31 29
3 5 5 4 3 3 3 6 8 9 16 22 17 12 17 21 18 15 15 16 20 24 23 23 27 27 24 21 20 20 20 22 21 18 14 11 9 10 12 13 10 7 10 17 25 30 30 30 32 34 36 37 38 41 44 46 47 49 49 47 43 40 39 38 38 38 39 38 36 34 35 38 40 41 42 41 39 36 29 23 23 24 24 26 29 27
9 11 7 4 5 6 8 11 12 12 18 25 21 15 14 17 17 17 18 18 20 26 26 25 26 27 25 22 19 19 19 19 19 18 17 13 11 12 11 11 10 9 9 13 19 25 29 31 32 33 34 34 35 41 46 48 48 50 49 46 43 41 39 37 37 38 38 37 36 36 38 41 43 43 42 39 36 33 28 23 21 21 20 22 25 26
7 8 6 4 6 7 6 8 9 13 21 28 26 18 13 15 18 18 18 18 21 26 28 27 26 25 24 21 19 19 18 17 17 17 16 13 12 14 13 12 13 13 12 12 13 17 22 28 32 34 33 32 34 39 43 44 45 44 41 40 39 38 36 35 35 36 38 37 35 35 37 40 40 40 38 35 32 33 30 25 21 19 19 20 24 26
5 8 8 5 5 6 8 12 18 24 26 25 21 19 18 19 22 22 19 17 21 24 25 25 25 24 22 20 18 17 16 15 15 15 14 11 10 12 12 12 13 12 12 12 13 15 19 23 28 33 32 31 34 36 35 36 39 38 35 34 33 31 32 33 33 35 37 37 34 34 36 37 37 36 34 32 31 31 29 25 20 18 16 17 20 23
10 9 6 4 7 8 8 12 19 24 24 25 28 30 29 27 29 29 24 20 21 23 24 25 25 23 21 17 15 15 15 13 12 12 11 8 7 9 10 10 10 10 11 12 14 16 18 20 26 30 30 28 29 31 32 34 39 39 37 34 31 30 31 33 32 33 35 35 34 36 38 36 34 31 30 30 30 30 29 26 20 16 14 14 16 18
7 5 3 3 7 8 7 14 19 14 12 23 36 41 37 33 32 30 25 21 21 22 25 27 26 24 22 18 14 14 14 12 9 8 8 6 5 7 9 9 9 10 10 11 13 15 16 17 21 25 26 24 24 25 28 32 36 37 36 34 32 30 32 33 33 34 36 35 34 36 36 33 31 30 29 28 28 29 30 29 23 17 14 15 16 17
6 7 5 4 6 9 16 26 27 16 12 26 40 43 39 35 32 28 24 22 21 21 23 26 26 25 25 22 15 12 13 11 6 4 4 4 4 6 7 7 7 8 8 8 11 14 15 16 17 19 22 23 22 23 25 28 31 32 32 32 31 30 32 35 34 34 35 36 35 35 32 30 29 29 27 27 27 28 30 28 23 18 16 16 16 17
Wind_Direction
190 222 246 235 217 194 206 213 227 248 268 271 270 272 268 265 267 267 268 277 287 284 273 264 262 265 263 255 248 254 259 244 219 220 207 200 201 201 202 202 203 205 209 209 207 207 207 208 209 209 209 208 207 205 203 202 202 202 200 199 202 202 201 198 197 197 197 197 197 200 202 205 208 208 209 210 214 218 218 218 218 219 219 220 225 227
310 233 243 235 213 204 215 223 234 251 258 256 259 268 268 261 264 268 269 279 287 283 276 276 275 275 272 267 257 248 251 248 227 215 211 204 198 202 204 203 204 206 210 210 207 208 207 208 208 208 208 207 207 205 203 202 202 202 202 202 203 203 202 201 201 200 200 200 200 201 203 206 208 209 211 212 216 220 218 217 217 216 218 219 222 225
280 249 250 233 206 211 228 238 239 246 248 248 248 254 265 263 268 272 263 262 269 270 273 274 274 276 277 273 265 252 239 242 240 222 213 210 198 200 205 204 204 205 208 207 206 207 207 208 208 208 208 208 208 207 204 203 201 202 202 203 205 206 206 204 204 204 203 203 204 205 206 207 209 211 214 216 219 221 218 217 218 217 221 222 222 224
242 250 249 230 215 218 236 240 236 245 246 239 240 243 258 262 261 270 264 254 255 251 262 272 275 277 276 274 272 265 249 240 241 230 218 216 206 202 207 206 204 203 204 204 203 205 206 207 208 207 208 208 207 207 205 204 202 202 202 202 205 208 209 207 205 206 205 204 205 208 210 212 213 215 217 220 222 222 219 217 218 219 223 225 225 225
235 241 231 217 215 215 233 242 229 234 246 236 231 232 248 254 245 250 273 275 271 262 256 264 277 276 265 266 266 260 254 239 235 228 216 217 214 210 209 205 204 204 202 201 201 203 204 205 207 208 209 207 207 208 209 207 204 203 202 202 205 208 210 208 206 206 205 203 204 206 209 213 216 217 219 221 220 220 218 218 217 219 224 227 228 228
244 241 231 238 230 213 221 238 227 212 238 250 231 226 237 247 247 248 264 272 278 273 254 224 251 273 266 258 256 240 243 239 232 223 210 213 214 214 210 203 203 204 203 202 201 202 203 205 206 208 208 208 208 211 212 210 207 205 203 201 204 208 209 208 207 207 206 203 204 205 206 210 214 216 219 221 220 218 218 217 217 220 225 228 229 230
243 216 212 229 233 223 216 233 232 203 217 259 234 222 230 239 246 246 251 255 249 265 259 214 216 269 294 267 265 252 237 237 234 228 217 213 213 213 209 204 203 203 202 202 201 201 202 203 205 206 207 208 211 213 213 211 209 207 204 202 205 207 207 207 207 207 206 205 205 207 208 210 213 216 218 221 222 221 220 219 219 221 224 226 229 230
192 187 202 219 223 225 224 236 231 193 197 250 242 230 228 233 238 237 241 246 241 257 267 247 214 257 279 258 266 278 272 257 243 232 224 217 217 215 209 204 205 205 202 200 200 199 200 202 204 205 206 208 212 213 212 210 210 208 206 204 206 207 206 206 206 207 207 207 207 208 210 214 216 219 221 222 223 223 223 223 222 222 223 226 228 229
146 170 190 207 215 227 221 236 232 195 203 246 249 245 237 235 237 234 236 244 243 246 264 258 221 241 266 254 259 272 275 272 257 238 228 218 219 218 210 205 206 207 205 202 200 199 199 201 203 205 206 207 210 212 213 212 211 208 206 205 206 206 206 206 207 207 208 209 209 209 211 214 217 221 224 225 225 225 225 225 223 222 224 226 227 227
279 255 245 217 216 226 217 231 233 208 222 254 268 274 262 249 242 238 234 240 247 237 249 255 233 231 261 246 252 264 254 255 255 244 232 218 219 220 212 205 205 206 206 204 202 200 200 201 203 205 206 206 208 211 213 212 210 208 206 205 206 206 206 206 207 207 208 210 211 211 213 214 216 220 224 225 226 226 226 224 223 223 224 226 226 226
250 272 280 247 211 221 233 243 237 224 233 259 285 285 281 267 241 239 232 219 244 242 241 252 242 231 254 243 236 245 230 228 239 250 243 222 221 222 214 203 202 203 203 203 202 201 201 201 203 205 206 205 206 209 210 210 209 208 206 205 206 207 207 207 206 207 208 211 213 214 215 216 217 220 222 223 224 225 225 223 222 223 225 226 226 226
257 265 268 231 222 232 272 277 260 252 244 247 269 268 288 302 292 274 237 195 231 243 237 250 244 226 240 253 246 242 240 236 231 248 257 241 227 227 219 205 201 201 201 200 200 201 201 201 203 204 204 203 204 206 208 209 209 208 206 205 206 207 208 207 206 206 208 211 214 216 218 219 220 222 222 223 223 224 225 223 222 223 225 226 225 225
275 253 238 231 235 223 228 279 272 278 257 230 241 244 249 290 315 297 246 203 232 246 236 242 242 230 234 241 242 244 249 247 235 238 254 259 242 230 221 211 204 201 201 199 199 199 200 201 203 203 203 203 204 206 209 209 209 207 206 206 207 208 208 208 207 206 208 211 215 218 219 221 222 223 223 224 225 226 226 226 225 225 227 228 226 225
297 274 240 212 223 204 193 222 246 250 241 216 206 198 204 234 283 267 262 275 262 250 242 238 235 241 249 233 232 240 245 247 243 243 251 260 261 247 226 214 209 204 201 199 198 199 199 201 202 203 203 203 205 208 209 209 208 207 206 206 207 209 209 208 208 207 208 212 216 219 221 222 223 223 224 225 226 227 229 228 229 231 232 233 233 231
264 290 241 190 207 195 190 206 210 205 236 233 187 149 182 185 171 219 239 257 259 264 266 252 225 218 230 220 220 229 238 244 246 246 250 258 264 265 243 213 206 204 202 200 199 200 201 201 202 203 203 204 206 208 209 208 208 207 206 206 208 208 209 209 209 208 209 212 216 219 222 224 224 224 225 226 227 229 231 231 231 233 234 236 237 237
208 263 247 229 255 248 250 256 195 192 236 246 178 136 200 192 162 218 241 221 210 276 291 266 226 223 228 232 223 218 234 245 247 247 251 258 262 265 251 212 201 201 200 201 200 200 202 202 203 203 203 204 206 207 208 208 207 207 207 207 208 209 210 211 210 209 210 212 215 218 221 224 224 224 225 224 226 229 232 233 234 234 235 237 238 238
212 266 265 268 264 247 247 245 202 191 210 215 183 182 204 176 145 194 273 252 158 190 269 246 264 281 279 267 242 221 234 251 257 253 249 256 260 259 243 212 202 200 199 200 200 200 201 202 203 203 203 204 205 206 208 208 208 208 207 206 207 209 211 212 212 211 211 213 216 218 221 223 223 223 224 223 225 228 232 233 235 236 235 236 237 238
229 278 277 265 265 248 224 226 237 229 206 168 202 197 143 40 76 117 284 300 142 207 268 247 248 262 244 275 271 224 239 258 266 268 274 279 275 269 254 225 206 202 200 199 199 200 201 202 204 204 204 205 207 208 209 210 209 208 207 206 206 209 211 213 213 212 212 213 216 218 221 222 223 223 224 224 225 229 231 232 234 235 234 234 237 239
192 291 287 254 257 272 224 205 259 256 223 208 216 180 120 80 300 317 197 244 208 205 281 287 271 251 208 227 223 189 248 276 278 286 299 295 289 290 285 257 215 202 201 198 197 198 200 202 204 205 205 206 207 208 209 209 207 206 206 207 208 211 212 213 212 212 212 214 216 220 221 222 222 223 224 224 226 229 231 233 234 234 233 233 236 239
134 284 291 277 260 311 337 186 216 264 235 223 247 176 137 152 185 213 204 208 195 183 249 299 321 276 232 231 172 134 350 299 279 291 293 282 297 318 317 294 235 204 199 198 196 197 199 202 204 205 205 206 206 207 208 206 205 205 205 207 209 212 213 212 213 213 212 214 217 220 221 221 222 222 223 225 226 228 231 233 235 235 233 232 235 238
146 168 260 291 323 321 304 206 185 193 172 183 210 192 190 176 165 200 233 219 198 181 200 275 306 266 256 269 109 101 0 278 259 285 296 300 321 331 333 317 259 210 199 198 197 197 200 202 204 205 205 205 206 206 206 204 204 204 205 207 209 211 212 212 213 213 213 214 216 220 220 220 220 221 223 225 226 229 231 233 235 236 235 235 236 238
183 182 244 282 310 285 255 223 176 160 149 188 219 207 190 183 169 253 269 262 231 188 187 174 260 267 258 187 103 88 330 284 272 292 305 316 328 331 334 331 292 217 200 198 197 198 200 201 202 203 203 204 204 204 203 202 203 204 205 206 208 210 213 213 213 213 214 214 216 220 221 220 220 221 222 224 226 229 231 234 234 235 235 236 237 239
143 166 258 263 271 262 259 257 229 209 239 245 242 242 215 182 167 183 232 262 296 253 219 180 245 267 261 235 6 352 339 310 282 278 295 313 325 330 330 334 322 232 202 198 199 200 201 201 201 201 201 202 202 202 202 201 201 203 205 206 208 210 212 213 213 213 214 214 216 219 220 220 219 220 221 223 226 229 231 233 233 233 234 235 236 240
137 162 255 264 273 268 266 268 248 212 211 230 241 225 212 212 202 192 194 192 244 270 261 250 257 265 277 311 342 332 323 315 289 278 298 310 323 332 327 332 332 267 209 200 199 200 201 201 200 199 199 200 201 201 201 201 201 202 203 205 207 209 212 212 212 213 213 214 217 219 219 219 220 221 222 223 225 228 230 231 231 233 233 234 235 240
168 162 229 269 302 311 319 327 321 153 161 197 229 211 208 215 206 195 180 163 233 248 208 212 258 263 287 310 321 313 308 314 303 296 310 315 323 330 326 329 333 292 216 204 202 200 200 198 197 197 197 198 199 199 199 200 200 200 201 203 206 208 210 211 212 212 213 214 216 218 219 219 220 222 222 224 227 229 229 229 231 232 231 231 234 238
172 153 177 246 304 314 322 272 217 245 235 229 214 201 209 208 196 191 179 173 220 237 206 204 274 290 297 301 298 295 301 308 311 313 320 329 330 329 327 327 328 299 218 208 205 201 198 196 195 195 196 197 198 199 199 199 199 199 200 202 205 207 208 210 212 212 213 214 215 217 218 218 220 222 224 226 227 227 228 230 231 231 229 230 233 235
219 231 190 236 239 225 253 247 231 232 250 254 238 218 209 204 201 193 171 184 206 240 252 223 241 281 292 293 291 298 304 303 309 310 316 331 331 327 328 325 320 295 224 210 206 201 197 195 195 195 195 197 198 198 199 198 198 198 199 201 204 206 207 209 210 211 213 214 214 216 218 219 220 221 222 223 224 227 231 233 232 228 227 229 231 233
332 240 206 228 232 241 263 268 270 267 252 257 251 229 213 211 209 198 203 215 187 160 280 250 226 265 280 284 288 296 302 303 301 295 307 326 325 324 332 327 314 285 230 211 205 201 197 194 194 194 195 196 197 198 198 198 198 198 198 200 202 204 206 208 209 211 213 213 213 216 219 218 216 218 221 224 226 230 233 233 230 225 225 229 231 231
7 250 218 207 230 243 249 258 263 253 243 246 241 231 220 214 209 206 220 219 168 174 250 258 267 271 270 277 284 289 293 290 285 288 306 324 327 332 337 330 313 276 228 208 203 201 197 194 193 193 194 195 196 196 196 196 197 197 198 199 201 202 205 208 209 210 212 213 214 217 220 219 216 217 222 224 227 230 231 231 228 223 225 231 234 231
155 251 217 210 252 251 233 247 254 245 249 254 245 240 225 213 211 214 222 214 185 211 240 255 270 270 266 270 277 281 280 272 275 290 311 331 338 341 337 330 317 269 222 205 200 200 198 195 193 192 193 194 194 195 195 196 197 197 197 198 199 201 204 207 208 208 211 213 214 217 220 220 219 220 222 223 225 228 229 229 225 222 225 232 235 232
194 231 201 198 272 270 229 235 243 234 236 252 259 261 239 217 213 219 226 215 205 233 245 252 266 270 267 267 268 269 269 271 282 300 319 331 340 342 332 329 325 269 218 204 199 198 197 195 193 192 192 193 194 195 196 197 197 197 198 198 198 201 204 206 207 208 211 212 215 218 218 217 219 222 222 222 224 226 227 226 224 223 226 230 234 232
193 251 234 160 305 295 249 254 268 251 222 241 280 289 254 216 203 210 218 210 211 231 249 254 258 262 264 271 270 258 262 280 298 305 317 325 333 336 325 326 331 287 220 204 198 195 194 194 193 193 193 194 195 196 197 198 197 197 198 198 200 202 203 205 207 209 211 213 215 216 215 216 220 222 220 219 221 223 225 225 225 225 224 226 232 231
185 243 272 78 311 293 299 316 299 303 49 273 266 262 249 237 226 212 209 218 220 218 228 241 245 251 265 277 279 276 286 301 304 306 313 315 317 317 312 322 334 309 233 207 199 196 195 195 196 196 196 196 197 199 199 198 197 199 200 201 201 202 202 203 206 208 210 212 213 213 214 218 220 218 217 217 219 222 223 224 226 224 222 225 230 229
198 228 244 166 282 286 306 337 335 38 51 254 237 269 305 281 259 249 239 236 226 214 231 252 257 262 273 277 268 263 274 287 301 309 309 304 302 302 301 310 328 314 249 215 203 202 200 199 200 199 198 199 200 200 200 200 201 202 202 201 201 201 202 202 205 207 209 210 212 213 216 219 217 214 214 216 218 220 223 226 226 222 222 227 229 226
235 205 207 193 211 275 314 9 40 229 232 230 340 13 6 343 302 302 283 256 248 325 297 289 282 276 274 270 254 251 277 305 317 313 308 303 299 296 293 295 309 312 256 219 208 208 208 205 204 201 200 200 200 198 198 199 202 200 198 198 200 201 202 202 203 206 207 209 211 213 217 216 213 212 213 215 217 219 223 225 222 220 224 228 227 225
247 193 172 242 233 279 333 25 8 277 270 283 48 26 11 347 327 327 320 0 74 332 290 289 291 290 290 279 272 294 319 333 329 311 305 303 302 301 301 297 303 312 281 234 217 214 214 212 209 206 204 202 198 197 199 200 200 198 197 197 199 200 200 200 202 204 206 208 210 213 214 212 210 211 213 214 217 220 222 221 219 222 228 226 223 224
338 221 248 263 245 288 309 287 273 311 350 8 64 52 10 322 307 321 318 238 196 219 299 313 314 326 338 332 329 333 334 338 332 309 303 304 306 310 316 314 309 309 296 257 233 225 222 220 216 211 207 204 200 199 201 200 199 198 197 197 198 199 199 200 202 204 206 208 210 211 211 210 210 212 214 214 216 219 220 218 219 226 227 222 221 223
341 286 279 267 252 299 312 297 323 11 6 303 289 329 331 294 257 240 239 259 242 326 344 333 326 340 351 346 340 339 333 328 320 295 295 305 313 314 318 320 315 306 292 257 232 227 225 220 217 214 210 206 203 203 202 200 199 198 197 198 198 199 200 201 203 204 206 208 210 210 210 210 210 212 214 214 216 218 218 218 221 225 223 223 224 225
353 286 257 230 268 317 121 296 326 8 277 278 295 325 335 322 260 220 33 288 285 348 347 337 331 339 349 340 332 332 324 303 271 277 291 303 310 311 312 316 316 307 289 254 226 224 224 217 212 213 212 208 205 204 203 201 200 198 198 199 200 199 200 202 204 206 208 209 210 211 211 211 210 212 216 217 215 216 218 220 223 223 222 225 224 224
1 0 16 19 341 334 357 314 302 226 262 280 299 330 336 328 281 127 46 272 306 343 339 328 320 320 325 325 326 325 289 260 265 289 299 302 302 305 308 311 312 304 287 269 241 227 227 223 216 215 215 213 210 207 205 203 200 199 200 200 200 200 203 205 207 207 208 209 209 210 211 211 211 214 216 217 215 214 217 223 225 222 223 223 220 221
341 345 353 358 338 335 347 340 308 274 264 269 315 337 337 330 333 94 117 275 313 327 321 313 306 304 307 306 299 281 274 280 288 297 304 302 295 299 307 309 306 293 277 272 259 236 229 228 225 222 221 219 215 209 206 203 201 201 202 200 200 203 207 208 208 207 208 208 209 210 211 212 214 214 215 218 217 215 217 223 223 221 221 220 217 217
337 338 329 335 334 338 341 279 288 296 248 289 328 337 339 341 52 298 288 298 313 315 314 313 305 302 304 294 274 275 285 293 298 299 302 302 294 298 306 305 301 286 264 263 260 241 231 229 227 224 222 219 215 211 208 205 204 204 203 202 204 208 208 206 207 208 208 208 209 210 210 211 212 213 216 219 217 213 214 219 220 219 220 220 219 218
337 332 327 330 317 310 309 312 334 339 300 316 330 342 357 353 278 282 292 309 318 315 314 314 307 308 310 303 303 308 305 304 305 299 298 305 300 300 299 293 294 284 253 249 247 234 225 225 223 220 219 217 214 213 211 207 205 204 204 205 208 208 205 205 207 208 208 208 208 209 210 210 212 216 219 220 216 211 211 216 217 217 220 222 220 217
343 348 328 320 322 333 346 346 355 233 285 306 317 314 295 301 299 294 297 311 319 318 316 314 313 315 313 306 309 315 310 305 302 295 294 297 285 278 276 272 275 264 234 235 239 232 223 221 221 220 219 216 213 213 212 209 208 208 209 209 208 205 204 206 207 206 206 206 206 208 211 214 218 219 219 219 217 211 208 213 217 217 220 225 222 217
323 326 303 284 295 303 278 268 262 264 286 300 303 298 304 309 312 312 304 301 311 317 316 313 313 318 320 315 310 311 307 300 295 292 290 278 246 236 247 250 251 244 227 229 236 236 232 228 223 219 215 213 214 216 214 211 210 209 209 209 206 204 204 205 205 205 206 206 207 210 213 215 216 217 214 215 217 213 207 211 218 218 220 225 223 219
290 303 301 287 294 291 266 256 262 283 302 308 309 309 313 320 328 325 309 302 316 324 320 315 315 320 325 323 317 317 313 301 293 294 295 280 242 227 235 239 240 240 235 231 233 236 238 236 229 221 215 215 220 223 219 215 213 211 208 206 204 204 204 204 205 206 207 208 209 212 214 213 213 214 213 212 215 214 210 211 216 215 218 223 222 221
290 315 328 302 295 309 298 280 293 309 310 310 312 312 315 325 332 326 310 309 325 328 324 323 325 327 329 328 325 323 316 307 303 301 296 280 248 234 237 241 241 242 241 239 240 241 240 238 233 227 221 217 219 220 218 213 208 205 200 196 196 200 203 205 206 206 205 206 208 213 215 213 213 214 211 208 209 210 210 212 215 216 219 221 220 220
307 338 339 305 290 300 286 290 307 312 308 309 315 317 318 321 324 323 321 326 332 330 330 335 337 335 333 330 329 326 318 316 318 309 295 280 254 246 251 252 249 250 247 245 248 245 239 235 229 225 221 214 210 213 214 209 202 199 196 194 196 200 204 207 208 206 204 205 208 212 214 213 215 215 211 206 206 209 209 211 215 221 225 226 223 220
286 306 314 299 307 305 286 299 320 324 322 324 325 323 322 323 321 321 326 332 332 333 340 344 341 340 341 338 335 333 325 323 325 314 297 284 267 263 265 259 249 247 245 243 244 240 234 229 222 218 215 211 207 209 212 208 204 203 201 201 203 204 205 208 208 207 206 207 210 212 211 211 213 213 208 206 208 210 211 212 214 221 231 236 234 229
277 288 305 324 320 314 308 317 325 329 321 315 314 315 317 319 317 315 319 327 331 339 347 346 341 345 353 355 349 341 336 331 324 309 294 278 264 262 257 250 244 242 238 236 234 226 218 215 215 213 209 207 204 204 201 197 196 197 197 199 202 204 205 205 205 206 206 207 211 213 209 205 204 203 202 205 209 211 214 215 215 221 230 239 241 236
250 267 285 301 298 292 296 304 310 310 291 296 304 310 315 318 315 311 315 325 332 340 346 344 341 345 351 353 354 350 344 340 328 306 297 274 255 254 251 251 256 253 247 239 228 216 202 196 199 202 200 199 198 196 192 188 189 192 194 196 201 204 203 201 201 203 205 207 210 210 204 199 199 200 202 207 211 215 215 214 215 220 225 233 240 238